This is the latest recevied weather packets stored in our database for station/object K1RFS. If no packets are shown the sender has not sent any weather packets the latest 10 day(s).
| Time | Temp. | Humidity | Pressure | Rain* | Wind** | Luminosity | Snow |
|---|---|---|---|---|---|---|---|
| 1788103472 | 17.22° C | 82% | 1003.4 hPa | 0 mm | - | 68 W/m² | - |
| 1788103171 | 16.67° C | 82% | 1003.6 hPa | 0 mm | - | 59 W/m² | - |
| 1788102871 | 16.67° C | 82% | 1003.4 hPa | 0 mm | - | 40 W/m² | - |
| 1788102566 | 16.67° C | 82% | 1003.6 hPa | 0 mm | - | 35 W/m² | - |
| 1788102266 | 16.67° C | 82% | 1003.4 hPa | 0 mm | - | 48 W/m² | - |
| 1788101960 | 16.11° C | 84% | 1003.4 hPa | 0 mm | - | 71 W/m² | - |
| 1788101655 | 16.11° C | 86% | 1003.3 hPa | 0 mm | - | 48 W/m² | - |
| 1788101351 | 15.56° C | 86% | 1003.6 hPa | 0 mm | - | 27 W/m² | - |
| 1788101047 | 15.56° C | 86% | 1003.6 hPa | 0 mm | - | 26 W/m² | - |
| 1788100746 | 15.56° C | 87% | 1003.4 hPa | 0 mm | - | 22 W/m² | - |
| 1788100441 | 15° C | 89% | 1003.3 hPa | 0 mm | - | 26 W/m² | - |
| 1788100141 | 15° C | 90% | 1003.6 hPa | 0 mm | - | 27 W/m² | - |
| 1788099836 | 14.44° C | 92% | 1003.6 hPa | 0 mm | - | 24 W/m² | - |
| 1788099531 | 14.44° C | 93% | 1003.6 hPa | 0 mm | - | 21 W/m² | - |
| 1788099226 | 13.89° C | 94% | 1003.7 hPa | 0 mm | - | 20 W/m² | - |
| 1788098921 | 13.89° C | 94% | 1003.7 hPa | 0 mm | - | 20 W/m² | - |
| 1788098617 | 13.89° C | 94% | 1003.2 hPa | 0 mm | - | 19 W/m² | - |
| 1788098316 | 13.89° C | 94% | 1003.4 hPa | 0 mm | - | 14 W/m² | - |
| 1788098012 | 13.89° C | 94% | 1003.4 hPa | 0 mm | - | 12 W/m² | - |
| 1788097708 | 13.89° C | 94% | 1003.3 hPa | 0 mm | - | 11 W/m² | - |
| 1788097408 | 13.89° C | 94% | 1003.2 hPa | 0 mm | - | 10 W/m² | - |
| 1788097104 | 13.89° C | 94% | 1003.2 hPa | 0 mm | - | 9 W/m² | - |
| 1788096800 | 14.44° C | 94% | 1003.1 hPa | 0 mm | - | 7 W/m² | - |
| 1788096495 | 14.44° C | 94% | 1003.2 hPa | 0 mm | - | 7 W/m² | - |
| 1788096191 | 14.44° C | 94% | 1003.1 hPa | 0 mm | - | 6 W/m² | - |
* Rain latest hour (hover to see other rain measurements)
** Current wind speed in m/s (hover to see current wind gust speed)